GFSSGP_250_spd_282.txt.gz
Wind_Speed
42 35 28 23 17 13 28 29 26 27 28 19 18 17 19 17 22 21 23 20 15 10 10 8 5 2 3 5 10 16 20 23 21 18 17 16 18 19 19 16 11 16 17 19 19 19 16 13 8
44 44 34 26 20 19 34 31 27 22 26 21 18 17 18 15 14 21 18 16 12 9 4 4 4 3 5 8 14 18 21 22 19 17 16 19 21 22 22 14 15 19 19 20 22 18 15 9 4
47 46 43 36 32 30 39 32 26 24 25 26 20 14 20 19 10 16 15 13 9 6 4 6 4 9 11 13 21 25 24 18 18 18 18 21 21 18 15 13 19 23 23 24 18 13 8 4 2
51 48 45 43 40 32 33 28 24 24 27 26 21 14 15 9 5 7 5 6 9 10 10 7 9 9 15 19 22 21 15 17 18 19 19 21 18 19 20 20 22 20 19 17 16 12 8 2 5
50 47 44 44 42 38 32 27 24 29 26 19 18 12 8 5 3 4 6 6 10 12 13 12 11 17 21 27 22 16 17 17 20 20 19 17 17 20 24 25 19 18 18 16 12 6 4 8 12
51 45 43 40 45 43 38 35 30 21 19 20 15 13 6 5 2 5 6 10 13 16 19 24 26 28 28 22 22 18 18 19 19 18 17 18 25 27 24 21 21 20 12 6 1 10 13 15 22
40 48 43 42 37 33 29 26 22 21 16 11 10 10 8 7 9 12 14 15 20 24 26 25 25 23 20 16 13 13 14 14 14 14 16 21 30 22 17 21 21 8 3 5 16 20 23 27 26
34 36 42 45 46 40 35 31 28 17 8 6 5 1 3 5 8 11 10 9 10 12 12 12 13 12 8 5 7 9 10 9 10 18 23 26 25 20 21 19 7 7 10 21 26 29 29 29 28
28 30 31 36 41 43 40 35 30 23 21 20 19 17 16 14 12 14 14 13 14 13 7 12 10 5 3 3 5 7 8 10 17 21 24 23 17 20 21 12 12 16 23 29 30 32 32 30 26
22 26 27 26 28 36 39 40 34 33 33 36 35 32 32 30 30 29 32 32 32 30 23 9 12 7 8 5 6 5 8 12 15 20 16 16 19 23 24 18 21 27 31 32 33 34 33 29 25
14 20 22 22 20 26 31 32 34 39 38 40 40 37 39 38 38 39 41 39 41 37 33 31 27 20 12 8 7 8 9 12 16 10 14 18 23 24 26 22 25 29 33 32 35 34 33 28 24
10 12 18 17 15 18 23 23 28 26 30 31 34 37 38 32 36 38 40 42 43 45 40 38 33 28 20 13 11 9 10 12 12 11 16 21 26 23 25 26 28 30 32 36 33 30 27 24 21
7 9 12 13 10 9 10 17 22 19 20 24 26 24 24 27 32 36 35 36 37 41 43 39 36 32 25 24 18 15 13 13 12 14 19 22 27 26 24 26 26 27 28 29 30 26 21 20 18
3 3 5 4 5 7 8 6 14 17 16 13 13 16 23 18 18 29 36 32 33 35 39 40 37 32 30 27 22 20 16 14 14 18 19 20 24 26 26 24 22 23 23 23 22 22 20 18 15
5 8 6 0 6 4 3 4 2 11 12 13 11 10 10 17 15 17 26 29 30 28 31 36 36 34 31 28 26 22 17 17 16 18 19 19 19 22 24 24 22 20 19 17 15 16 14 12 10
15 11 9 5 5 6 6 3 3 3 4 8 9 11 10 7 8 13 22 25 32 28 25 27 30 32 31 29 26 23 22 18 15 17 17 17 17 20 21 22 21 20 18 15 13 12 11 8 5
20 22 14 10 11 13 11 10 6 8 7 5 5 6 7 6 6 12 16 20 24 29 24 21 23 25 25 27 25 24 22 20 16 16 14 14 16 19 21 20 21 21 18 17 15 14 14 13 10
30 25 20 19 17 18 17 16 15 12 13 13 10 6 4 5 5 10 13 16 20 23 27 19 17 18 20 21 21 22 22 21 18 16 14 12 15 17 18 20 18 19 18 17 15 14 12 13 15
35 35 33 25 21 22 23 22 17 17 16 15 16 13 10 7 8 7 14 13 17 19 23 23 17 13 13 17 19 17 19 19 18 16 15 13 14 13 14 14 16 14 12 14 11 12 12 15 15
38 36 35 34 32 27 28 28 25 19 19 19 20 17 16 16 13 12 13 14 14 13 17 19 18 14 10 9 12 12 14 16 16 14 13 13 14 13 12 10 9 10 10 11 13 11 10 11 12
45 43 40 37 36 35 33 34 31 30 25 24 23 23 23 24 23 19 23 21 15 14 15 16 13 15 12 10 9 7 7 9 11 13 11 9 11 10 8 7 5 4 4 6 10 10 10 10 10
48 49 46 44 43 43 40 39 36 37 38 36 33 33 32 32 33 33 31 27 22 20 15 15 14 13 15 12 10 11 7 3 8 8 7 6 3 1 3 5 6 3 4 4 4 6 8 9 8
54 52 53 51 50 49 46 46 43 43 44 44 42 41 39 39 36 37 36 35 30 25 24 20 17 16 20 18 14 10 8 8 1 7 7 5 3 4 7 8 6 4 3 5 4 2 3 4 6
59 58 58 60 58 54 53 54 50 50 48 47 47 48 43 42 39 39 38 34 30 30 29 26 19 21 23 23 18 17 12 12 11 5 3 0 5 1 5 7 7 7 7 6 8 7 3 2 4
68 67 66 64 64 63 58 58 57 55 55 54 52 51 49 46 36 37 33 36 35 30 36 35 27 25 25 26 22 20 16 18 16 13 9 6 7 5 6 7 9 10 10 10 9 9 9 7 5
73 74 73 71 70 69 66 62 61 61 60 61 60 58 58 45 42 44 40 40 35 35 44 41 34 35 30 27 29 30 23 17 21 20 20 11 10 10 11 13 12 13 14 14 13 12 12 10 10
77 76 77 77 75 74 69 67 65 64 64 64 64 64 58 39 40 38 40 42 47 48 50 47 47 42 45 42 37 36 39 31 29 28 26 22 18 16 20 20 22 20 17 17 16 15 15 17 16
85 84 83 83 82 80 77 74 72 72 70 70 69 66 60 61 56 62 61 54 49 51 51 53 57 56 55 55 52 50 48 42 42 40 37 33 27 33 31 31 25 28 24 22 19 17 18 19 19
82 83 84 85 85 84 83 81 80 79 78 76 73 68 61 50 38 44 56 58 54 56 61 66 68 68 67 67 64 64 59 59 62 58 54 52 41 34 36 39 34 27 30 26 25 21 19 23 23
75 77 78 81 83 83 81 80 77 77 76 76 75 72 72 72 72 65 50 53 63 66 64 67 72 74 75 76 76 74 73 68 67 69 64 62 61 55 52 44 44 36 36 34 32 27 24 24 27

GFSSGP_250_spd_288.txt.gz
Wind_Speed
29 33 38 38 35 29 23 21 19 16 13 7 12 13 15 13 12 17 14 11 11 9 2 3 6 7 7 8 10 16 20 22 15 15 15 15 15 17 15 13 9 9 11 10 11 10 7 3 3
30 30 32 38 29 27 21 17 12 15 13 10 8 18 15 13 12 13 14 6 5 7 3 7 10 10 9 12 14 19 22 19 16 16 15 16 16 15 12 11 12 13 13 12 11 7 1 5 8
26 28 29 35 33 22 20 16 12 12 12 11 15 18 15 13 12 13 15 11 11 11 13 17 16 14 16 17 20 22 23 21 17 17 18 17 15 13 17 15 14 15 12 11 4 2 5 9 12
38 27 30 26 25 15 20 18 10 12 14 10 12 14 7 7 8 12 15 15 17 16 17 18 16 14 16 19 26 27 24 23 19 19 15 13 14 17 22 16 17 13 11 8 5 5 7 12 18
41 37 33 30 25 27 25 15 13 13 15 10 14 10 8 6 2 6 8 10 13 17 18 21 21 24 27 30 26 21 17 19 18 16 13 15 18 18 19 16 12 11 11 8 5 11 12 19 21
43 38 36 33 29 22 16 15 16 15 14 13 10 5 5 4 5 5 10 15 21 21 23 24 24 30 29 25 18 13 14 14 13 13 19 22 20 16 15 15 13 12 6 9 17 20 23 26 21
45 41 36 33 31 29 26 23 20 16 12 8 6 8 11 11 10 12 15 20 24 26 27 26 26 19 14 12 13 9 9 10 15 22 21 15 16 17 16 14 8 4 13 23 27 28 31 27 22
47 45 43 36 34 31 26 21 17 15 12 10 9 7 10 12 11 13 13 13 12 10 9 8 9 4 5 15 9 5 6 14 18 15 17 18 17 14 7 0 7 15 25 30 33 35 32 26 24
39 41 39 38 35 34 33 30 26 24 21 19 20 21 20 19 19 21 22 20 17 14 8 6 11 13 2 4 3 7 12 12 14 16 15 13 7 4 7 12 21 29 32 34 37 35 29 25 22
34 33 36 37 34 30 29 28 26 26 24 23 27 29 28 27 24 26 28 30 27 26 23 20 15 13 6 7 2 7 11 13 14 15 14 9 13 16 20 26 32 35 35 36 35 31 25 20 21
30 30 31 34 33 30 28 28 28 28 29 31 30 32 31 29 29 30 34 35 33 31 30 26 21 17 14 12 12 13 14 14 19 20 21 19 24 27 30 32 31 33 35 32 29 24 20 19 21
19 23 23 24 27 27 27 27 25 28 30 25 25 26 27 28 30 24 29 32 36 35 33 29 25 24 21 17 15 16 14 18 22 23 27 26 31 31 30 29 30 32 33 29 22 19 19 20 18
13 15 15 16 18 21 23 22 21 19 21 15 15 13 14 17 20 25 26 28 31 33 35 33 29 26 24 22 20 17 16 19 22 22 27 26 26 28 28 29 27 27 25 22 20 17 17 18 14
9 8 12 11 10 11 14 14 14 13 13 9 11 8 12 14 18 23 24 22 26 30 31 33 31 29 26 24 23 19 17 19 21 21 23 27 26 27 26 25 23 22 20 17 14 14 15 15 14
9 8 4 8 9 6 7 11 10 9 8 6 6 4 9 11 14 19 20 24 22 24 27 28 30 29 28 25 24 21 19 19 20 20 19 20 22 22 20 19 18 17 15 14 11 11 12 11 8
14 11 11 6 5 8 6 5 6 4 3 2 1 3 5 8 11 12 17 19 22 25 21 24 25 27 27 26 24 23 20 19 20 19 20 17 16 16 17 15 14 13 12 11 9 8 6 3 1
15 14 12 10 9 8 10 8 9 9 9 9 9 7 6 6 7 6 10 15 15 19 22 20 19 21 24 24 23 21 20 18 20 22 23 22 20 15 13 12 11 10 11 12 12 12 13 12 8
21 19 16 17 16 15 13 14 14 13 14 15 14 14 13 10 6 8 6 6 11 14 16 18 16 16 16 18 20 19 16 16 15 17 19 19 19 19 19 18 16 15 14 12 12 13 12 9 10
31 29 25 22 18 18 18 19 20 20 20 21 21 17 17 14 15 14 12 8 3 6 9 11 12 11 11 12 12 14 13 10 10 11 15 15 16 15 14 11 12 11 10 11 12 11 9 11 11
36 35 33 30 27 24 24 24 22 23 24 24 23 22 21 21 19 17 17 16 11 9 9 7 8 9 9 8 7 6 6 7 5 6 10 12 11 12 10 7 6 7 6 7 6 6 9 10 9
39 36 35 36 35 34 33 33 33 31 28 28 27 24 23 25 25 25 22 21 21 21 20 13 14 12 10 10 7 8 5 6 3 4 6 11 10 10 9 8 5 2 2 2 2 3 4 6 5
44 42 41 41 40 39 39 37 38 37 37 37 35 35 30 25 26 28 26 27 25 25 25 26 19 20 18 16 14 8 10 10 9 7 8 8 8 8 8 7 7 6 6 7 3 5 3 3 4
48 48 48 47 46 45 45 45 46 45 43 42 41 40 40 39 33 34 33 34 32 32 27 27 28 26 25 23 21 17 16 18 16 14 12 10 11 11 9 6 4 4 5 7 10 9 7 6 7
54 53 52 52 52 52 51 52 51 51 51 50 48 46 44 46 40 39 35 37 35 33 34 37 32 26 27 23 26 25 23 21 22 20 19 19 16 16 17 15 14 12 11 11 12 13 12 11 9
60 60 59 58 58 60 56 57 54 56 57 56 56 56 52 50 49 47 44 42 43 41 40 38 36 34 35 30 27 31 31 28 27 27 28 25 25 23 21 18 18 16 16 18 17 16 18 19 16
69 68 67 65 64 63 61 60 55 61 60 60 60 61 61 58 57 56 53 50 50 46 46 44 44 39 39 35 30 30 40 37 36 33 34 34 32 29 28 23 21 21 16 16 18 21 20 20 21
74 75 73 72 71 69 69 65 66 68 68 67 66 65 67 65 61 60 59 58 57 54 50 44 46 42 36 39 36 32 35 41 45 42 40 42 41 40 35 29 29 22 22 17 17 22 24 24 22
78 78 78 78 76 73 74 70 73 71 73 73 72 71 71 70 68 64 60 61 63 60 55 50 50 44 41 43 48 48 52 49 46 50 46 48 43 46 46 40 38 35 36 31 25 23 25 26 27
73 78 80 82 80 80 78 76 74 74 75 75 76 75 75 72 69 66 54 55 58 53 51 51 51 50 51 56 63 65 61 60 57 58 56 56 52 53 55 48 47 45 45 41 35 30 30 30 29
76 76 74 76 76 78 79 82 77 82 80 81 79 78 74 70 67 63 56 50 43 46 51 58 59 61 59 63 67 62 64 68 66 66 64 66 63 61 63 58 57 56 51 53 45 40 37 33 32

GFSSGP_250_spd_291.txt.gz
Wind_Speed
40 31 33 32 30 25 20 20 12 11 9 10 14 10 16 13 12 11 6 12 16 15 10 10 11 12 16 12 17 19 21 23 22 19 18 16 13 14 13 11 8 8 10 14 13 14 10 6 4
38 33 31 32 25 22 21 17 13 13 13 13 7 10 12 11 8 7 6 6 8 12 13 13 14 14 16 16 21 24 26 29 23 22 18 18 15 14 13 13 13 14 15 16 13 10 3 5 8
38 28 37 30 25 23 18 14 16 16 14 10 8 7 7 9 6 12 15 11 10 14 15 18 23 25 22 20 22 27 31 25 21 20 22 19 17 16 14 15 12 15 15 15 9 3 4 11 14
35 26 29 28 20 20 15 14 11 14 14 13 15 8 3 3 5 7 11 15 17 17 22 23 25 25 25 27 32 34 25 21 21 21 19 18 17 18 18 17 15 15 14 9 7 6 9 14 16
27 29 24 17 15 17 14 14 15 14 11 11 10 10 8 2 5 9 10 14 17 20 20 24 25 26 27 32 34 24 20 20 20 17 16 19 22 19 18 17 14 12 9 10 10 13 15 19 16
27 24 17 14 20 16 17 17 15 13 15 11 6 6 8 7 6 9 15 18 20 24 27 27 26 27 29 27 18 16 18 17 16 18 23 24 21 18 17 15 14 12 12 10 16 20 21 21 17
16 27 25 23 18 19 17 16 14 13 11 7 8 8 10 12 12 10 16 20 22 26 26 24 23 23 13 13 15 18 15 17 21 25 20 20 21 20 17 14 11 7 9 18 24 26 27 22 20
35 30 27 24 22 21 21 21 18 16 16 20 22 22 20 19 19 15 10 9 9 8 9 10 8 2 3 10 21 15 16 22 17 17 19 18 16 14 8 3 7 12 20 27 29 30 26 22 20
36 34 34 34 32 31 28 25 24 24 26 28 29 27 24 21 20 21 20 18 12 9 7 6 13 8 6 16 16 13 14 14 16 16 15 12 8 3 8 13 18 24 28 30 32 28 23 21 21
40 39 38 37 33 28 27 26 27 27 29 31 29 27 26 26 27 28 29 27 26 21 19 13 11 9 15 12 8 9 13 14 16 15 13 11 14 17 20 22 26 29 31 32 29 25 22 21 21
27 30 31 30 30 29 30 28 28 27 31 33 32 29 30 24 23 25 31 32 33 30 24 20 15 9 7 9 11 13 15 17 21 23 22 24 29 30 29 28 30 31 31 29 25 21 20 22 22
24 23 26 25 27 26 25 27 26 24 24 24 21 18 19 21 21 23 28 28 31 33 31 26 21 18 17 16 17 17 19 21 25 27 28 28 31 31 30 30 29 30 28 22 18 14 18 21 20
17 17 18 20 21 23 21 19 19 17 14 11 12 13 18 18 23 21 22 24 24 30 30 31 30 27 25 22 20 21 23 24 24 25 25 25 27 28 27 26 26 24 21 17 14 13 15 16 14
12 11 12 14 14 16 14 14 11 9 5 7 10 14 16 17 19 21 22 19 22 25 27 30 31 32 30 28 25 23 24 25 24 24 24 27 27 25 22 21 21 18 16 12 11 12 12 10 9
7 7 7 8 10 10 9 9 8 7 5 4 5 9 13 15 15 18 19 22 21 21 23 26 27 29 31 31 29 25 24 25 24 22 21 21 22 20 18 17 15 14 12 12 10 10 9 7 4
10 8 7 8 9 11 11 10 8 6 5 3 2 3 5 8 9 13 14 15 17 21 21 22 23 24 26 27 27 25 23 23 25 24 19 17 16 15 13 11 9 7 7 6 7 9 9 6 3
5 19 23 16 12 11 12 12 11 10 12 12 10 9 7 7 6 8 7 11 12 14 17 19 19 20 21 22 22 22 19 18 21 22 23 20 15 11 9 7 6 6 5 4 3 3 4 5 4
27 22 21 21 21 18 19 18 15 14 15 15 15 16 15 12 9 9 9 7 8 10 11 13 16 17 16 16 17 18 16 14 11 16 17 19 18 17 15 14 13 10 8 10 10 9 6 5 7
23 23 25 25 24 21 21 19 18 19 19 18 19 21 21 18 17 13 16 15 12 9 8 10 12 15 14 12 12 13 13 11 10 5 11 13 13 13 13 12 8 7 7 9 9 6 7 11 11
38 35 29 25 21 19 23 26 27 27 24 23 22 22 24 24 20 21 20 20 19 16 17 14 12 13 15 13 11 9 8 8 7 5 2 3 6 7 6 6 6 6 3 2 3 6 8 9 4
42 43 40 36 32 20 24 30 31 33 30 28 27 27 27 26 27 25 25 25 25 23 23 22 17 18 16 15 15 12 10 11 11 7 9 7 5 3 3 2 2 3 3 1 1 0 4 4 3
47 45 45 45 41 38 43 33 39 33 40 37 36 35 33 32 29 28 25 25 27 28 25 25 28 25 19 19 19 19 18 13 12 12 15 14 8 10 9 5 4 4 4 5 6 6 6 3 2
49 50 50 50 50 44 43 47 38 40 43 40 41 42 41 41 41 40 37 35 31 33 32 32 31 28 27 27 23 20 23 22 16 16 25 23 20 13 15 15 11 10 7 7 9 10 9 8 8
53 55 54 54 53 53 55 54 54 56 54 51 48 49 48 47 46 45 46 42 39 39 38 37 35 37 34 27 27 24 24 26 24 16 37 28 25 24 21 22 18 17 14 13 13 14 14 13 13
58 58 58 57 57 58 59 58 58 53 58 55 54 54 54 53 52 51 49 49 47 42 43 42 41 38 38 40 35 32 29 28 32 33 31 32 32 30 29 27 24 24 22 21 19 17 18 18 19
63 64 64 64 64 66 63 65 60 57 63 63 62 61 59 59 57 57 54 54 52 52 50 47 45 46 46 46 44 37 36 34 36 39 40 40 38 37 35 34 32 32 26 27 27 26 23 21 21
71 72 72 71 70 71 71 68 69 65 65 66 66 67 67 64 62 60 61 58 59 57 58 55 45 42 45 46 42 39 36 40 41 42 46 48 46 42 42 42 39 36 35 35 30 29 30 31 27
80 78 80 77 77 77 77 79 82 72 73 73 73 73 72 69 68 65 70 67 58 60 62 62 61 59 55 50 35 43 42 40 48 48 50 50 53 52 46 47 48 47 44 39 34 35 32 32 34
81 83 84 86 84 82 81 88 88 77 78 80 78 79 78 77 75 74 73 70 58 59 61 59 58 58 59 57 57 57 55 48 54 61 57 54 54 59 58 52 54 54 53 50 45 44 41 37 34
80 79 81 85 85 88 88 97 88 84 80 82 82 82 81 80 78 74 73 69 67 59 52 54 57 57 59 58 56 60 64 70 68 65 68 66 65 67 65 61 61 61 60 61 59 56 49 48 45

GFSSGP_250_spd_297.txt.gz
Wind_Speed
34 30 25 13 20 21 8 3 3 3 7 8 6 8 10 10 10 11 11 10 9 9 14 21 18 16 16 22 25 28 29 31 34 35 33 24 21 22 23 18 14 12 10 10 10 14 13 11 1
35 30 21 15 4 6 5 5 2 3 6 6 3 1 3 3 7 6 2 7 11 11 15 16 16 18 22 25 27 29 31 34 35 34 27 22 23 23 21 17 13 12 11 10 11 10 10 3 4
31 21 7 13 9 3 4 4 1 9 11 10 9 4 3 5 5 7 9 8 11 12 16 17 19 21 25 31 34 32 33 33 28 23 23 27 26 20 15 14 12 13 11 11 8 8 5 6 15
36 29 14 11 8 7 4 4 13 6 10 10 7 3 3 1 6 5 8 11 13 18 19 22 26 27 31 34 37 29 26 24 21 27 34 33 23 20 22 18 14 14 11 7 3 6 9 15 16
22 22 21 13 13 8 9 9 8 6 7 5 2 2 0 4 5 9 11 13 16 19 22 24 27 29 31 33 20 19 22 29 25 31 28 29 29 28 21 15 9 5 5 2 8 12 16 18 18
24 23 22 16 11 9 12 10 6 2 6 6 5 5 6 4 4 6 9 12 16 19 22 25 25 23 15 16 17 19 28 34 34 31 29 25 24 19 14 10 7 1 6 13 14 18 21 22 23
21 22 15 13 10 11 11 10 10 12 14 15 15 15 15 13 12 11 11 12 12 12 14 15 12 9 10 14 21 27 34 29 27 25 20 16 12 8 6 4 4 8 13 15 22 25 24 22 22
23 22 15 14 14 20 22 20 18 20 22 23 25 24 22 22 22 20 21 22 20 17 13 9 5 6 13 21 24 31 23 22 21 19 14 10 7 7 6 7 10 15 19 25 29 27 28 23 22
15 22 24 27 27 24 23 22 21 20 20 20 21 24 26 28 28 26 24 29 27 26 23 17 13 17 15 18 21 19 28 31 29 29 25 22 21 20 21 26 28 30 31 31 30 30 26 22 23
25 26 28 25 24 23 23 22 21 21 21 19 23 22 23 25 29 31 31 34 34 30 28 22 16 16 15 14 19 32 32 39 42 38 33 32 31 35 36 36 39 40 36 32 29 27 23 22 25
20 20 21 23 22 20 22 18 18 20 20 22 24 28 24 29 33 35 35 36 38 36 33 32 25 22 19 19 17 21 33 36 43 40 37 33 32 40 38 38 39 37 34 32 29 24 17 15 19
18 16 17 19 14 16 14 15 18 19 20 22 23 24 24 25 28 32 37 37 36 38 36 35 34 27 22 20 24 27 27 26 28 33 30 35 34 37 38 32 35 35 29 29 19 16 17 11 7
15 18 16 11 8 11 12 12 12 16 16 19 19 20 22 22 24 27 28 33 36 37 37 36 36 34 30 24 21 28 28 30 27 30 25 29 29 33 28 26 21 22 25 21 20 24 12 4 11
12 10 15 13 11 8 6 6 7 11 12 11 12 14 15 16 18 20 21 24 30 28 34 34 36 35 34 31 27 24 22 25 21 20 21 21 22 25 23 18 17 20 24 23 19 28 10 8 5
14 12 13 11 12 8 6 3 1 0 1 5 9 9 9 10 11 15 18 20 23 25 25 28 32 32 32 31 30 29 20 19 19 20 17 18 18 17 16 12 14 16 19 18 19 20 13 5 8
18 15 17 15 15 13 10 8 7 7 6 9 8 8 8 12 13 13 16 15 17 20 21 23 24 28 29 28 29 30 30 23 19 17 12 13 13 12 10 8 8 11 14 12 13 13 13 7 12
16 12 13 14 19 16 13 12 11 13 14 15 15 13 11 9 10 13 14 15 14 15 16 19 22 23 24 27 27 28 27 24 21 19 17 16 13 11 9 5 3 4 8 10 9 10 11 8 9
20 13 13 16 16 16 14 13 16 17 22 22 23 20 16 16 11 9 12 16 16 16 16 16 18 20 22 23 26 24 23 21 18 17 16 15 14 15 13 10 11 12 6 4 8 11 12 12 12
13 15 6 18 12 15 20 23 22 20 23 25 26 24 22 17 18 15 15 14 17 17 17 17 17 17 18 19 20 24 21 17 17 13 10 12 12 8 8 8 7 6 6 6 6 1 8 11 9
29 18 11 18 26 23 22 26 29 22 22 29 30 28 26 26 26 23 18 18 17 18 18 18 18 19 18 19 27 27 22 19 16 15 10 10 10 10 8 6 4 4 3 4 4 5 4 2 3
42 32 32 22 14 10 21 15 19 23 26 31 26 32 33 32 29 28 24 22 20 19 21 24 25 25 24 28 29 21 22 18 13 10 13 14 10 10 7 6 9 8 8 4 1 2 3 4 5
49 44 44 48 42 47 36 31 29 30 30 28 23 26 27 24 35 33 26 23 24 25 28 31 30 32 30 32 33 25 15 11 11 11 11 11 11 16 14 18 18 18 12 11 10 8 8 10 11
52 51 49 46 51 46 50 42 36 31 30 29 22 29 29 40 41 38 34 28 28 30 31 31 34 36 35 23 19 16 19 12 11 14 15 13 13 13 12 20 25 22 23 16 14 13 14 14 12
56 52 57 59 58 50 52 46 48 37 33 39 40 40 38 34 37 36 36 32 36 37 37 36 38 34 35 31 23 17 23 24 29 27 25 21 19 14 19 16 26 26 26 24 28 24 20 20 19
64 61 64 64 64 66 63 54 57 67 63 57 54 59 46 34 50 48 41 45 43 47 50 46 38 43 47 40 34 34 38 35 38 34 32 29 28 28 25 30 35 32 27 35 36 32 29 30 30
69 68 67 67 67 70 73 71 71 74 70 67 67 61 47 52 40 39 45 54 55 61 53 53 52 48 45 43 44 36 40 38 40 42 44 45 40 34 37 41 44 44 44 41 41 41 40 36 35
68 67 72 72 72 74 78 78 74 72 75 75 67 56 51 53 58 56 62 68 68 64 58 57 57 51 54 52 41 44 52 56 54 56 56 55 46 44 44 47 51 52 52 49 49 47 44 44 43
69 72 73 73 73 76 78 83 83 80 77 72 75 64 66 69 68 72 75 75 70 64 57 58 55 57 53 55 58 57 57 61 65 64 57 53 55 57 54 57 58 60 62 59 58 56 54 51 50
73 75 81 76 78 81 83 89 87 77 78 85 85 68 70 77 78 76 75 75 74 68 56 59 55 51 53 59 63 65 68 68 65 66 71 72 65 65 68 66 64 68 67 69 65 63 62 59 56
67 69 78 85 81 84 85 88 84 65 73 90 84 85 86 78 78 79 72 73 76 71 72 66 54 63 67 70 71 70 71 74 74 74 75 76 73 71 71 70 64 70 71 74 74 73 66 67 67

GFSSGP_250_spd_303.txt.gz
Wind_Speed
22 19 17 10 9 8 3 2 8 10 18 17 18 13 11 9 8 10 13 13 13 13 10 14 17 19 20 24 27 29 32 35 33 21 15 10 9 10 17 15 10 5 3 8 8 12 13 14 14
21 16 11 9 8 4 5 8 10 16 19 14 8 10 8 10 11 10 9 10 10 11 13 15 17 21 23 28 32 35 36 28 19 13 16 12 11 14 14 7 5 3 5 6 12 15 14 16 17
19 15 8 8 5 4 7 11 13 14 14 10 9 8 10 8 13 12 10 12 13 14 17 21 22 23 28 31 34 29 21 19 19 19 22 15 18 15 6 4 7 1 4 9 16 16 17 17 17
24 11 5 7 4 8 8 9 8 10 14 13 13 13 13 14 14 15 17 19 21 22 23 26 28 29 30 32 23 19 21 20 22 23 19 14 14 11 6 5 4 4 7 15 19 18 19 17 19
15 12 10 3 4 2 3 4 7 13 11 11 10 11 11 14 14 14 15 18 20 20 21 20 21 19 16 14 17 17 22 23 22 20 16 10 6 1 5 3 8 15 19 23 21 21 20 21 21
19 17 9 5 5 4 4 6 8 18 22 24 22 21 21 21 20 18 14 11 9 9 8 9 9 12 12 15 20 21 18 15 13 9 6 4 6 11 17 16 20 26 29 26 25 23 23 25 22
18 5 9 4 6 8 6 14 17 21 24 29 30 31 32 35 30 34 24 18 18 17 16 19 22 22 25 26 23 22 20 14 10 9 8 13 15 18 22 21 30 33 31 30 27 24 25 24 25
13 11 5 2 5 13 13 16 17 18 24 29 33 34 37 41 41 42 43 39 31 22 21 21 22 24 25 29 29 31 27 22 19 18 20 23 24 25 28 33 35 34 33 30 27 28 28 26 25
7 7 4 12 21 17 16 20 19 21 27 31 30 32 36 37 40 41 44 44 39 29 23 22 23 19 18 27 32 32 30 29 26 23 21 28 34 37 39 37 35 37 33 29 29 31 27 27 25
7 3 12 17 18 17 18 21 23 26 22 24 25 26 30 31 36 37 41 43 43 42 33 30 27 23 24 26 31 35 32 32 31 26 23 29 38 44 44 39 38 34 30 28 26 21 20 18 18
8 14 21 17 18 15 15 19 19 18 19 18 21 22 23 26 29 33 35 40 43 42 44 42 35 29 30 31 32 27 31 34 33 32 32 35 39 43 39 37 34 31 28 27 20 16 21 19 19
16 16 17 16 19 14 14 17 17 16 15 17 18 20 23 25 27 27 30 33 34 39 42 42 42 36 35 30 29 29 29 30 33 33 34 36 38 34 32 31 26 26 21 20 18 11 7 16 14
19 18 14 9 13 12 12 11 11 14 11 12 15 16 17 19 22 25 28 29 30 32 34 38 39 39 40 39 34 28 25 24 28 26 30 29 28 27 23 23 23 22 20 14 13 7 6 9 9
16 16 11 10 8 8 10 9 6 7 8 9 11 14 16 20 22 22 22 23 25 28 28 30 33 33 37 37 36 35 28 21 20 21 19 18 20 19 15 15 13 13 16 10 1 5 6 9 7
14 14 10 8 6 5 2 4 4 1 4 5 7 11 15 18 18 20 23 22 21 21 23 25 24 26 27 30 31 30 30 28 22 17 11 12 10 9 10 8 12 7 12 14 1 4 6 10 7
11 14 12 10 12 10 10 10 9 10 10 9 8 11 14 15 15 14 19 20 20 20 17 18 19 21 22 25 27 28 24 22 22 24 20 11 8 6 5 3 5 8 11 14 6 5 8 7 9
15 16 16 16 17 15 16 20 19 17 14 12 16 17 15 13 14 14 16 16 17 17 16 13 14 16 18 21 23 22 22 17 15 14 16 15 13 9 8 4 1 2 6 8 10 13 10 10 13
18 23 23 21 22 21 20 25 26 23 18 18 22 19 17 14 14 16 17 17 19 18 14 11 12 14 18 19 22 21 16 14 14 11 13 10 12 10 10 10 11 9 5 7 12 14 13 17 17
28 27 20 23 24 23 21 25 28 26 22 22 22 18 20 17 18 20 19 21 16 20 22 15 12 14 16 14 19 18 12 15 15 8 7 10 7 6 9 8 7 8 9 11 11 11 11 8 6
24 35 32 24 19 25 26 24 21 24 25 23 21 18 21 19 21 21 21 18 20 20 24 23 18 14 17 19 23 16 11 12 16 7 6 8 12 8 8 9 7 8 10 11 12 15 14 12 11
34 32 27 29 25 21 24 27 28 26 29 27 27 26 22 25 23 21 22 23 23 24 28 26 20 20 19 18 23 23 13 17 14 13 10 12 11 12 14 12 11 11 12 13 18 20 18 14 16
42 35 35 33 31 33 28 34 31 31 30 35 28 28 25 25 25 25 22 28 28 28 27 25 20 24 22 18 22 21 13 18 15 7 14 12 14 18 16 20 18 17 15 17 18 20 21 21 19
49 47 44 43 42 41 30 34 35 29 32 38 30 32 32 31 32 36 28 34 34 33 30 28 28 33 33 27 32 23 19 16 20 18 21 22 21 21 24 26 25 24 25 28 24 24 24 23 23
54 49 49 52 46 44 46 43 44 42 37 37 34 34 36 40 40 41 43 43 39 41 39 41 40 41 36 48 42 41 32 32 28 33 34 32 30 34 37 32 32 35 33 32 33 33 33 29 24
62 61 54 54 53 57 49 50 52 51 46 50 45 44 39 39 41 44 40 43 43 43 47 50 50 49 56 53 46 41 36 31 29 33 37 42 40 42 43 40 40 42 40 36 36 40 42 38 36
67 67 66 62 65 62 57 61 63 58 56 59 59 59 54 56 54 53 54 54 55 56 55 54 58 56 57 56 54 51 49 47 41 44 44 49 52 49 47 50 52 51 49 49 40 41 43 47 49
71 72 77 76 72 73 70 71 70 68 66 66 66 65 64 65 63 62 64 65 66 67 64 65 63 57 57 53 50 53 49 45 51 53 56 60 57 57 55 54 58 61 56 55 55 54 49 51 54
71 74 75 75 78 80 79 78 76 76 75 75 73 72 70 70 70 68 68 70 69 67 64 65 58 53 52 55 55 55 56 58 59 57 54 62 65 65 65 68 64 67 70 61 67 63 59 57 57
71 74 75 77 77 78 80 81 82 81 77 76 77 77 76 74 68 65 62 65 69 70 55 47 47 53 49 55 53 55 59 62 59 57 58 62 68 72 75 71 74 72 69 71 72 74 73 70 66
63 67 68 69 72 77 80 76 79 79 77 77 77 76 73 62 60 51 39 51 58 46 38 51 51 57 57 61 62 62 62 63 58 50 70 67 69 73 79 77 74 69 71 73 76 75 79 81 83

GFSSGP_250_spd_309.txt.gz
Wind_Speed
16 15 9 9 3 5 7 11 19 23 23 24 24 22 22 21 21 19 16 17 15 12 11 12 14 17 21 24 27 29 29 28 16 9 3 3 3 1 6 7 10 12 11 14 17 20 24 27 28
17 13 7 8 7 10 12 17 19 20 22 22 21 20 19 20 20 19 19 18 19 18 17 18 18 21 26 30 31 30 22 17 13 7 3 1 6 4 6 10 14 15 12 17 20 23 28 25 31
12 13 12 5 13 11 11 13 18 17 21 24 23 19 17 15 13 12 12 14 17 18 19 18 19 20 22 22 22 23 24 22 17 13 10 4 9 4 3 11 14 13 18 20 23 26 27 23 30
10 9 1 6 8 11 11 18 15 25 29 30 31 24 19 16 14 14 14 14 10 9 9 11 12 13 16 18 20 22 23 21 16 12 8 11 15 9 9 13 14 19 21 21 24 26 26 25 29
10 8 2 10 11 11 19 19 25 31 33 36 41 45 35 32 26 26 28 30 29 28 26 23 21 22 23 23 21 15 10 10 11 11 10 13 16 13 16 15 21 22 21 23 24 26 27 26 29
9 8 15 11 10 19 16 21 28 34 36 37 44 48 48 40 36 31 31 28 26 25 23 24 29 31 31 30 23 18 12 5 6 10 15 17 17 18 20 23 27 23 24 25 27 29 28 28 26
3 7 12 7 16 17 17 26 26 29 34 36 36 41 43 51 45 34 30 30 29 28 28 28 31 34 37 33 25 21 21 15 17 20 22 22 23 24 31 35 29 27 26 29 31 29 31 29 25
6 9 7 13 14 17 21 23 24 26 31 35 34 36 39 44 44 47 44 39 37 33 33 33 36 37 39 39 33 28 28 24 26 29 28 27 29 39 40 35 35 30 29 31 31 29 29 25 23
3 1 6 14 12 21 21 20 21 24 28 29 31 32 34 36 37 41 44 44 45 45 41 36 37 38 39 39 40 37 32 30 33 35 32 36 42 41 36 37 31 31 33 30 27 25 26 24 25
7 9 18 16 18 25 19 18 19 22 24 27 30 32 33 33 32 34 37 40 43 43 44 43 40 39 40 40 41 38 37 36 37 39 41 42 41 35 36 33 28 29 29 27 22 21 22 20 19
11 20 18 16 21 18 17 16 16 18 20 22 23 25 28 30 33 29 30 33 36 39 42 43 41 41 39 40 40 39 42 43 40 39 41 40 36 34 31 26 25 25 22 22 25 22 19 15 15
16 18 17 14 14 15 15 13 12 13 15 17 19 22 22 24 29 30 31 28 29 32 35 38 39 37 39 38 37 37 38 39 37 39 36 35 33 28 23 22 20 18 18 17 22 20 17 14 15
15 14 14 12 12 13 12 11 11 11 13 14 16 20 20 20 22 24 25 28 28 26 28 31 34 33 33 35 35 31 29 28 29 28 26 26 23 19 16 16 14 12 10 12 16 17 14 9 6
12 8 8 10 11 8 6 6 5 6 9 14 14 20 20 18 17 17 20 24 26 26 24 27 30 32 28 28 30 32 27 21 20 16 15 13 11 10 6 5 4 3 5 6 7 6 11 13 6
13 10 8 9 8 7 5 4 3 1 8 13 14 16 17 16 15 15 16 17 20 22 22 23 26 26 27 24 26 26 25 24 21 14 10 7 6 3 3 3 6 6 7 7 7 4 8 12 9
14 14 12 8 6 8 6 7 6 8 11 14 15 16 19 15 16 13 16 19 15 15 19 23 22 22 24 21 21 23 22 19 17 17 16 10 7 5 4 5 6 7 9 8 9 12 17 14 10
17 16 16 17 14 14 14 15 14 15 15 18 19 15 16 17 15 11 15 17 16 16 11 17 18 16 20 21 20 21 24 22 16 13 11 10 8 7 7 9 7 6 5 5 11 9 9 8 10
19 19 16 19 20 20 19 20 18 18 20 18 20 21 17 17 15 15 16 18 13 16 13 13 13 9 11 14 17 19 24 23 19 16 10 9 9 4 5 5 6 7 6 6 7 12 12 13 14
22 21 25 25 25 25 22 22 22 22 24 22 21 19 19 20 19 19 19 18 12 11 14 15 12 9 10 12 15 16 19 24 23 12 14 15 11 16 11 7 6 6 9 10 10 9 13 15 14
26 29 29 29 28 26 26 26 26 27 25 25 23 24 21 23 20 20 24 25 19 15 17 18 17 14 14 11 11 13 20 21 19 23 27 20 14 18 18 14 12 13 14 14 13 10 9 12 14
30 29 30 31 29 30 32 31 32 30 28 29 28 26 24 28 26 24 25 27 28 20 16 21 22 18 19 17 17 19 19 23 22 28 31 29 26 21 21 21 20 18 21 18 17 17 15 16 15
42 41 40 36 33 33 34 36 39 38 35 33 31 28 32 34 36 36 32 29 30 31 29 25 29 27 29 29 28 29 29 24 28 34 36 33 32 30 28 24 22 24 29 24 19 21 22 19 23
44 44 42 40 38 40 39 37 34 36 35 34 34 33 35 38 40 34 35 35 33 34 36 32 33 34 34 35 34 31 35 41 38 37 34 31 31 29 31 33 34 33 34 37 36 31 28 27 29
53 50 48 45 43 41 42 44 39 45 44 42 42 40 40 42 44 42 40 39 38 36 38 39 39 39 42 38 37 40 48 41 37 30 32 37 34 37 38 41 42 44 45 44 43 42 42 42 38
55 54 51 49 49 49 48 52 48 47 46 47 47 46 44 43 47 49 44 42 44 44 43 42 43 44 40 36 44 41 40 45 33 34 38 36 37 40 39 43 50 44 46 48 48 50 43 45 45
62 61 59 56 55 55 52 55 59 61 63 56 47 48 50 52 44 44 45 43 41 37 35 36 39 38 41 46 34 31 35 33 36 39 36 36 35 34 35 41 48 50 52 51 52 53 52 51 52
60 63 66 65 62 61 60 61 64 65 65 67 67 65 56 58 60 62 54 49 51 51 53 53 48 51 48 32 29 35 35 33 38 39 41 45 40 40 52 61 63 61 61 61 61 61 60 59 58
64 64 64 65 65 65 63 64 68 70 69 70 71 72 71 70 65 63 64 69 65 63 58 56 54 41 40 35 33 33 50 35 52 45 43 52 52 61 60 61 66 68 70 69 67 69 68 66 64
56 57 60 62 62 64 64 65 68 71 70 73 75 76 77 79 78 75 74 73 71 68 63 57 50 41 37 42 47 45 55 42 56 45 50 57 55 60 67 68 73 78 81 78 75 72 74 71 66
46 45 47 47 49 52 53 50 61 65 69 71 73 75 76 78 79 79 77 78 79 79 74 54 49 52 51 56 61 63 53 75 66 63 71 68 68 72 73 74 82 82 79 77 79 77 77 80 79

GFSSGP_250_spd_312.txt.gz
Wind_Speed
22 17 12 13 12 11 13 15 17 17 16 15 18 20 19 17 16 16 15 15 15 14 14 14 17 18 22 25 28 29 29 25 14 9 8 3 4 3 7 13 13 15 19 22 26 27 30 31 32
15 16 14 10 12 10 11 12 18 20 24 20 20 18 16 15 13 12 10 10 10 14 16 17 17 18 21 23 22 22 20 15 10 8 8 5 9 7 11 17 16 19 20 23 27 27 29 31 32
10 6 2 8 12 10 13 21 22 27 33 26 22 22 22 19 19 18 15 12 10 10 12 13 12 13 15 16 16 16 16 14 14 13 10 9 10 7 15 16 20 20 23 26 26 26 27 30 33
10 6 5 3 8 13 21 23 29 35 40 39 34 31 32 31 30 31 32 31 29 27 25 23 21 20 19 18 15 12 8 9 11 12 9 15 11 7 15 19 21 23 26 26 26 25 28 31 34
9 4 4 11 16 19 25 27 28 33 37 42 44 39 33 32 30 28 27 27 25 25 26 26 28 28 24 19 13 8 5 4 10 12 13 22 15 10 19 22 21 24 27 25 27 26 26 30 29
13 14 9 16 16 19 23 28 29 31 34 39 40 44 43 37 32 29 28 27 27 28 30 31 32 33 28 23 16 11 9 9 14 17 16 20 18 20 25 22 22 26 28 27 27 26 24 26 28
9 15 12 17 16 19 23 27 28 30 31 33 35 41 40 45 44 38 34 30 29 30 32 34 36 35 34 30 24 23 21 22 23 23 20 23 28 31 26 23 25 31 29 28 25 26 24 24 24
10 11 12 18 18 20 22 24 27 29 32 31 32 34 35 39 40 41 42 42 36 34 36 38 39 39 39 37 36 35 34 33 32 30 30 33 38 33 29 24 29 32 30 26 23 22 21 21 22
9 9 16 16 18 20 20 22 24 28 30 31 33 34 29 32 34 37 40 44 42 40 39 40 42 41 41 42 42 40 41 39 39 40 45 44 40 35 29 28 29 28 24 20 21 23 22 19 16
13 17 15 17 22 20 18 18 22 22 24 25 27 29 30 30 29 30 34 37 39 41 39 39 41 42 42 43 44 43 43 44 46 46 43 41 38 32 32 32 28 24 20 20 22 21 17 14 14
18 18 17 25 20 18 16 16 17 19 20 22 21 21 25 26 26 26 26 29 33 38 37 37 37 38 37 39 40 39 36 35 37 38 37 37 32 29 29 27 24 25 21 17 15 13 13 13 13
20 18 18 21 17 14 14 14 14 15 15 18 22 20 20 20 24 25 27 24 27 32 35 34 34 33 32 33 33 36 36 33 32 31 30 28 24 22 26 21 16 19 18 17 11 12 12 11 12
20 18 16 18 15 15 13 12 10 10 11 13 18 19 20 21 17 20 24 25 25 27 30 31 30 30 29 26 27 27 29 30 30 27 24 21 19 15 16 14 11 11 11 10 11 10 10 6 4
16 17 14 14 14 10 6 5 5 6 8 11 13 16 19 18 17 16 18 19 21 24 26 27 30 25 27 29 26 22 19 19 18 16 13 10 10 11 7 4 4 3 5 4 1 4 8 11 6
12 13 13 10 9 6 5 3 2 2 7 12 14 12 12 15 12 14 17 15 17 20 22 22 25 24 22 26 27 25 22 19 17 14 10 5 3 3 3 3 2 6 7 4 4 6 13 13 7
12 9 9 11 10 9 9 7 7 10 12 12 14 12 12 9 10 10 13 13 13 14 16 15 17 20 21 21 27 27 22 15 17 13 13 12 12 9 7 7 6 6 7 6 9 8 8 8 4
16 16 14 12 13 13 13 14 13 13 14 13 13 16 12 8 9 12 14 11 13 13 13 14 10 13 14 17 19 20 20 21 9 12 15 10 8 13 10 9 8 6 6 8 6 5 6 12 16
18 19 19 19 20 21 20 19 21 19 19 18 16 14 16 11 8 10 14 13 8 7 12 12 9 7 8 8 9 10 14 18 13 6 16 7 14 11 11 11 9 8 8 7 7 6 5 8 10
21 22 23 23 24 24 24 24 24 24 24 23 22 21 20 17 13 12 10 16 14 10 8 12 10 10 13 13 13 9 9 13 13 13 17 19 16 13 19 12 17 15 13 11 10 13 12 9 7
24 27 28 28 27 26 28 28 27 29 28 29 27 27 24 24 22 20 18 18 21 16 16 15 17 15 14 19 20 20 20 15 15 14 21 26 23 18 18 20 19 23 16 14 14 14 14 16 14
32 32 28 34 32 32 33 32 31 31 30 31 32 30 31 29 26 25 27 27 24 25 22 20 20 24 22 23 23 24 27 24 21 19 30 28 29 27 25 21 23 25 24 23 19 18 19 20 18
40 37 33 34 34 33 34 36 38 37 37 36 37 38 36 33 28 29 34 33 31 30 29 26 27 28 29 31 31 32 32 27 27 30 32 29 29 26 29 27 25 26 26 27 26 26 23 24 25
44 45 45 47 47 45 44 42 40 42 41 41 40 37 36 37 33 32 35 35 37 36 36 35 33 31 34 35 38 39 36 31 31 35 30 25 24 28 30 28 32 30 34 36 36 35 35 33 33
48 48 49 49 50 48 45 45 47 45 44 44 44 43 41 42 43 43 40 38 42 42 44 43 39 37 40 41 41 38 34 37 37 29 35 30 28 28 31 35 35 38 38 41 43 45 45 45 40
55 53 53 55 54 54 53 54 52 50 49 46 45 49 50 52 49 49 48 47 44 46 45 44 43 46 43 34 29 27 34 32 29 31 30 34 35 37 30 34 40 39 40 47 41 48 50 47 45
61 61 60 59 60 60 59 57 60 56 57 57 56 51 52 52 47 51 50 49 47 45 42 47 43 37 32 34 29 36 32 31 30 39 39 42 40 41 42 42 39 35 37 47 48 55 51 50 54
57 59 59 59 59 60 63 65 68 66 64 64 64 65 64 68 64 59 58 55 51 44 45 46 44 45 42 46 47 43 38 36 34 38 47 50 46 45 36 44 40 43 45 53 61 62 61 67 62
61 60 60 60 61 61 62 64 67 70 71 73 73 73 72 69 70 72 73 70 63 62 61 56 52 42 47 50 53 47 43 48 36 27 53 47 56 43 53 46 47 49 53 56 66 72 78 75 74
58 58 60 61 62 63 63 66 67 67 70 71 72 73 74 75 75 74 77 78 77 74 70 65 55 39 55 47 51 50 56 45 47 47 57 52 52 63 68 57 58 60 64 72 80 84 82 82 81
50 49 49 50 51 52 50 52 59 60 62 63 62 61 65 68 71 74 76 77 77 78 76 66 63 70 68 63 51 49 50 55 49 58 63 59 59 66 72 69 72 76 77 78 84 87 91 88 86

GFSSGP_250_spd_315.txt.gz
Wind_Speed
19 16 14 12 7 12 12 12 17 16 16 16 15 13 12 10 9 9 8 6 7 12 12 13 16 18 21 25 30 30 31 29 22 9 6 2 6 4 9 14 18 19 24 28 26 28 29 30 30
16 13 9 13 14 13 13 18 23 24 19 19 20 18 18 16 13 10 8 7 8 6 5 6 9 13 17 20 20 19 14 10 6 2 8 8 10 10 15 16 20 22 25 28 27 29 30 33 34
12 6 9 9 10 11 20 22 27 32 28 22 25 25 27 29 30 29 27 25 22 20 17 14 11 9 12 13 14 15 13 10 11 9 11 13 13 14 16 19 20 25 27 28 27 28 30 34 35
9 7 6 5 11 14 18 23 29 32 35 35 29 28 27 24 25 25 24 23 22 21 20 20 17 11 9 9 10 10 13 12 14 15 12 15 13 12 18 20 22 25 28 26 27 26 30 33 33
4 1 4 12 19 21 22 24 28 31 35 37 38 37 35 32 29 26 26 24 25 25 26 23 20 15 10 5 1 7 11 16 19 18 20 15 15 15 21 23 24 25 26 26 24 25 26 29 31
12 11 12 20 19 23 23 24 27 29 30 34 37 40 40 41 38 31 28 28 32 34 33 28 25 22 19 12 10 13 17 23 25 26 31 21 18 22 21 26 26 25 24 23 21 20 22 25 27
15 13 17 18 19 24 23 24 26 28 29 29 32 34 35 37 39 39 36 38 38 37 38 36 36 35 30 27 25 26 29 31 28 27 28 26 24 23 24 26 26 24 22 19 17 16 16 19 21
12 15 17 18 19 20 21 24 26 27 29 28 27 30 32 33 37 39 37 39 40 40 42 43 45 45 44 36 34 36 37 35 32 39 37 31 27 24 27 28 25 22 20 18 16 13 11 12 15
9 15 17 18 18 19 20 21 21 22 23 24 26 27 27 27 31 35 37 38 39 40 40 41 44 46 47 44 39 37 39 40 42 41 38 34 29 28 30 26 22 20 18 14 14 11 9 10 11
13 15 17 19 18 17 19 17 17 20 20 18 21 21 24 26 26 29 33 34 34 36 37 39 40 42 45 46 41 39 39 40 41 40 36 32 31 29 27 23 19 17 16 15 14 11 9 6 6
8 15 19 21 18 15 16 14 13 16 20 20 21 22 23 24 27 26 27 30 32 31 33 35 36 38 40 43 45 41 36 34 35 35 32 35 30 29 24 18 14 12 13 12 10 9 9 7 7
18 13 23 20 16 14 14 11 11 12 14 18 19 20 21 19 22 23 24 27 27 30 28 29 32 31 35 37 39 39 36 32 31 29 27 25 25 22 18 18 16 14 12 10 7 6 8 8 6
19 18 21 18 15 12 11 8 6 7 10 13 15 19 20 17 20 19 21 24 26 26 27 28 26 27 28 30 30 30 30 28 26 25 23 20 18 15 11 9 7 9 7 6 9 11 6 4 3
18 18 17 16 12 11 9 4 1 4 9 11 13 14 15 13 17 20 18 19 22 24 23 25 27 27 27 25 27 25 21 19 16 14 15 15 11 6 2 4 5 4 5 4 6 8 10 12 3
18 17 17 16 15 12 8 6 4 5 7 10 13 11 11 10 11 15 16 14 17 21 20 21 23 26 28 27 24 20 22 20 18 11 8 9 8 9 6 5 4 4 5 7 7 10 16 11 3
14 16 17 15 14 12 9 9 10 10 10 8 10 12 10 7 8 11 10 12 13 15 19 13 17 18 21 21 22 22 17 15 17 19 14 13 16 20 17 16 12 14 13 8 5 7 12 17 14
14 16 15 15 14 14 14 15 15 16 15 14 14 13 12 9 7 14 13 9 7 10 12 12 6 10 11 11 15 15 18 14 7 16 15 12 14 10 11 9 12 11 8 8 6 6 5 7 11
22 22 19 18 18 19 20 21 21 22 22 20 20 17 16 13 10 11 12 15 18 7 4 6 6 6 10 11 14 15 15 16 11 8 10 14 16 12 15 17 12 17 16 14 7 6 8 9 8
29 27 26 25 24 25 26 28 27 28 27 24 23 23 21 17 16 15 13 16 21 20 14 11 6 7 10 12 13 16 20 18 15 10 6 11 18 17 15 16 17 18 18 19 13 10 9 11 11
28 28 27 27 29 30 29 30 31 31 32 31 29 27 27 26 26 23 24 19 20 24 23 20 19 15 15 19 20 22 21 19 19 22 13 18 18 20 18 18 17 18 20 22 21 17 13 19 18
31 29 31 31 32 29 34 37 36 38 38 36 34 31 31 28 27 32 30 26 24 25 27 26 25 25 23 23 24 23 27 26 27 26 22 25 25 26 26 22 19 20 20 23 24 26 16 15 22
31 33 37 37 34 28 26 37 41 41 40 41 40 40 39 37 35 35 34 31 29 31 31 29 28 27 30 31 29 30 34 35 33 27 23 28 27 27 27 28 22 25 23 20 25 27 28 27 27
40 47 45 43 42 39 46 39 18 40 48 50 48 47 45 44 44 41 38 38 35 38 35 34 33 33 34 37 36 35 38 37 27 25 23 30 33 32 34 30 29 31 31 30 32 34 32 34 39
52 50 50 51 50 47 45 45 46 31 40 39 44 47 49 49 47 47 45 45 43 41 41 38 41 40 41 44 39 34 33 33 33 32 35 35 36 37 39 34 38 37 37 34 36 39 40 39 35
56 56 56 54 48 43 43 50 54 51 63 57 53 44 42 48 49 50 51 50 51 52 47 46 45 44 45 42 37 36 32 23 28 30 30 29 36 40 42 46 41 41 44 44 44 43 43 44 46
57 56 59 60 59 51 37 26 37 54 65 62 60 58 57 55 43 46 52 54 52 51 50 48 49 48 47 42 40 32 32 32 33 38 34 45 52 54 48 49 46 45 48 44 46 47 43 47 49
59 61 63 64 63 63 64 68 76 66 70 70 68 65 62 64 64 66 70 62 52 44 48 46 46 45 45 43 43 42 46 49 46 47 43 42 42 47 53 54 56 48 44 48 47 48 45 53 54
62 62 62 62 63 63 65 67 71 68 77 68 69 68 67 67 71 72 73 72 71 70 69 66 58 60 51 58 52 51 56 58 55 51 51 45 47 54 62 56 45 54 50 57 62 55 50 56 59
58 60 60 62 62 63 64 69 69 69 73 67 69 68 68 68 68 69 70 71 72 73 74 76 74 68 63 59 59 60 56 62 57 58 61 59 62 61 62 62 65 60 60 60 63 64 60 63 65
54 55 54 55 56 59 60 61 63 65 63 58 63 64 65 65 66 68 71 72 72 73 73 73 72 70 70 74 72 73 71 70 69 63 60 59 64 63 66 66 64 68 67 66 72 77 77 74 74